jssor.com alexa rank chart, jssor.com alexa rank daily changes

jssor.com alexa rank chart, jssor.com alexa rank daily changes

jssor.com
Actual rank:
54 143

RANK HISTORY

Date Rank Diff
2017/11/18 54 143 -6
2017/11/17 54 149 +919
2017/11/16 53 230 -725
2017/11/15 53 955 +27
2017/11/14 53 928 +51
2017/11/13 53 877 +655
2017/11/12 53 222 +412
2017/11/11 52 810 +88
2017/11/10 52 722 -335
2017/11/09 53 057 +379
2017/11/08 52 678 +137
2017/11/07 52 541 +637
2017/11/06 51 904 +1 057
2017/11/05 50 847 -49
2017/11/04 50 896 -68
2017/11/03 50 964 -599
2017/11/02 51 563 -3 217
2017/11/01 54 780 +270
2017/10/31 54 510 +1 251
2017/10/30 53 259 -231
2017/10/29 53 490 -1 152
2017/10/28 54 642 +332
2017/10/27 54 310 -1 023
2017/10/26 55 333 -1 299
2017/10/25 56 632 +57
2017/10/24 56 575 -367
2017/10/23 56 942 +145
2017/10/22 56 797 +126
2017/10/21 56 671 -780
2017/10/20 57 451 +5
2017/10/19 57 446 -670
2017/10/18 58 116 -806
2017/10/17 58 922 +252
2017/10/16 58 670 +31
2017/10/14 58 639 +472
2017/10/13 58 167 -858
2017/10/12 59 025 -641
2017/10/11 59 666 -726
2017/10/10 60 392 +652
2017/10/09 59 740 -98
2017/10/08 59 838 -615
2017/10/07 60 453 -799
2017/10/06 61 252 -1 775
2017/10/05 63 027 -791
2017/10/04 63 818 -627
2017/10/03 64 445 -470
2017/10/02 64 915 +750
2017/10/01 64 165 -1 419
2017/09/30 65 584 -1 400
2017/09/29 66 984 +332
2017/09/28 66 652 -1 390
2017/09/27 68 042 -385
2017/09/26 68 427 -340
2017/09/25 68 767 +935
2017/09/24 67 832 +791
2017/09/23 67 041 -1 554
2017/09/22 68 595 -94
2017/09/20 68 689 -1 015
2017/09/19 69 704 +563
2017/09/18 69 141

WIDGET FOR YOUR SITE

DOMAINS WITH THE NEAREST RANK

Domain Rank
bpm-power.com 54 138
haut.edu.cn 54 139
ifpa.edu.br 54 140
xn--90aiasbk5as2f.xn--p1ai 54 141
findandtrace.com 54 142
jssor.com 54 143
praxis.nl 54 144
bel-india.com 54 145
safepoollink.com 54 146
u-picardie.fr 54 147
olbg.com 54 148

DOMAINS WITH THE NEAREST RANK BY TLD .com

Domain Rank
bestmaturepics.com 54 133
houxue.com 54 134
highspeedinternet.com 54 136
bpm-power.com 54 138
findandtrace.com 54 142
jssor.com 54 143
bel-india.com 54 145
safepoollink.com 54 146
olbg.com 54 148
csgoempire2.com 54 155
loanedus.com 54 158